   A. Farneth, D. C. Fuls, A. R. Gibbs, A. D. Grauer, H. Gröller, J. A.
   Johnson, R. A. Kowalski, S. M. Larson, G. J. Leonard, D. Rankin, R. L.
   Seaman, F. C. Shelly, K. W. Wierzchoś. 1.0-m reflector + CCD.
(J57) Centro Astronómico Alto Turia, Valencia  (N39.950156 W1.109110)  Spain.
    Observer A. Fornas. Measurers E. Arce, V. Mas, G. Fornas. 0.43-m f/6.8
   reflector + CCD.
(J95) Great Shefford  (N51.474969 W1.447003)  UK/England.  Observer P.
   Birtwhistle. 0.41-m f/6.3 Schmidt-Cassegrain + CCD.
(K63) G. Pascoli Observatory, Castelvecchio Pascoli  (N44.082407 E10.462000)
   Italy.  Observer R. Bacci. 0.41-m f/3.2 Newtonian reflector + CCD.
(L01) Višnjan Observatory, Tičan  (N45.290897 E13.749300)  Croatia.
   Observers K. Korlević, D. Pujagic, V. Dobos. Measurers D. Pujagic, K.
   Korlević. 1.0-m f/2.9 reflector + CCD.
(Q62) iTelescope Observatory, Siding Spring  (S31.273286 E149.064420)
   Australia/NSW.  Observer H. Sato. 0.51-m f/6.8 astrograph + CCD + f/4.5
   focal reducer0.43-m f/6.8 astrograph + CCD + focal reducer0.43-m f/6.8
   astrograph + CCD0.10-m f/5 astrograph + CCD0.127-m f/5.6 refractor +
   CCD0.50-m f/6.8 reflector + CCD0.30-m f/9 reflector + CCD.
(W68) ATLAS Chile, Rio Hurtado  (S30.471010 W70.764980)  Chile.
(Z31) Tenerife Observatory-LCO A, Tenerife  (N28.300415 W16.511650)  Canary
   Islands (Spain).
(Z84) Calar Alto-Schmidt  (N37.224046 W2.548210)  Spain.  Observer E. Schwab.
   Measurers E. Schwab, D. Koschny, M. Micheli. 0.8-m f/3 Schmidt + CCD.

Orbital elements:  A10TGEB
   Perigee 2023 Mar 13.50956 +/- 0.000377 TT = 12:13:46 (JD 2460017.00956)
Epoch 2023 Mar 21.0 TT = JDT 2460024.5                           AutoNEOCP
M 115.82172852 +/- 0.014            (J2000 equator)
n  15.46261463 +/- 0.00233          Peri.    0.85762 +/- 0.0025
a344414.598 +/- 34.6                Node   357.72907 +/- 0.00011
e   0.8948809 +/- 1.29e-5           Incl.   36.98134 +/- 0.00037
P  23.28d                  H 29.87  G  0.15   U  8.7
q 36204.5226 +/- 7.79    Q 652624.674 +/- 61.8
77 of 89 observations 2023 Mar. 18-21; mean residual 0".40
Residuals in arcseconds: 
230316 F52( .00   .00 )   230320 204  .01+  .30+    230320 Z31  .20-  .10-    
230316 F52( .00   .00 )   230320 511( .92+  1.5+)   230320 Z84  .04-  .12-    
230318 W68  .51+  .53+    230320 511  .16+  .01-    230320 Z84  .05-  .10-    
230318 W68  .27+  .73+    230320 511( .48-  1.8-)   230320 Z84  .08-  .11-    
230318 W68  .31+  .58+    230320 511( .53+  1.7+)   230320 Z31  .13-  .13-    
230318 W68  .37+  .73+    230320 204  .66+  .20+    230320 K63  .23+  .36+    
230318 I41  .70-  1.2-    230320 511  .46+  .84+    230320 K63  .07+  .65-    
230318 I41  .46-  1.1-    230320 511  .02+  .58+    230320 104  .04-  .08+    
230318 J95( 1.2+  .69-)   230320 511  .43+  .53+    230320 K63  .22-  .73-    
230318 J95( .87+  1.3-)   230320 511  .31+  1.1+    230320 K63  .24-  .18-    
230319 H36  .10-  1.1-    230320 511  .26+  .26+    230320 K63  .23+  .23+    
230319 H36  .97-  .35-    230320 511  .29+  .82+    230320 104  .12-  .01+    
230319 I52  .04+  .00     230320 511  .30+  .48+    230320 104  .15+  .02+    
230319 I52  .57-  .29+    230320 511  .39+  .34+    230321 L01  .14-  .08-    
230319 703( 1.2-  .93+)   230320 511  .38+  .78+    230321 L01  .40-  .04+    
230319 I52  .07+  .37+    230320 511  .43+  .39+    230321 L01  .38-  .05-    
230319 703( 1.9-  .11+)   230320 511  .31+  .66+    230321 L01  .24-  .13-    
230319 I52  .47+  .77+    230320 511  .33+  .53+    230321 L01  .41-  .02-    
230319 H36  .42+  .80-    230320 511  .16+  .35+    230321 L01  .15-  .11-    
230319 703( 2.4-  .95-)   230320 511  .28+  .13+    230321 L01  .20-  .08-    
230319 Q62  .92-  1.2-    230320 511  .22+  .50+    230321 L01  .28-  .06-    
230319 Q62  .08+  .07+    230320 511  .14+  .53+    230321 L01  .22-  .03-    
230319 Q62( .84+  1.6+)   230320 511  .08-  .49+    230321 L01  .18-  .08+    
230319 J57  .48+  .55+    230320 734  .04-  .22-    230321 L01  .17-  .09-    
230319 J57  .12+  .35+    230320 734  .02-  .15-    230321 H21  .25-  .13-    
230319 J57  .25-  .34-    230320 734  .15+  .78+    230321 H21  .01+  .11+    
230319 958  .03-  .24+    230320 104  .01-  .09+    230321 H21  .16-  .06+    
230319 958  .24+  .15+    230320 104  .09+  .03+    230321 F51  .04-  .03-    
230319 958( 1.6-  .08+)   230320 104  .03-  .03-    230321 F51  .16+  .04-    
230320 204  .18+  .21-    230320 Z31  .10-  .09-    

Ephemerides (geocentric):
Date (UTC) HH   RA             Dec           delta  r     elong  mag " sig PA
---- --------  ------------   ------------  ------ ------ -----  --- --------
2023 03 22 16  11 38 06.589   +02 24 41.31  633997 1.0006 172.6 18.6 .147 102
2023 03 22 17  11 38 23.039   +02 21 37.06  634692 1.0006 172.6 18.6 .154 103
2023 03 22 18  11 38 39.458   +02 18 33.17  635377 1.0006 172.7 18.6 .162 104
2023 03 22 19  11 38 55.847   +02 15 29.64  636052 1.0006 172.7 18.6 .169 105
2023 03 22 20  11 39 12.205   +02 12 26.44  636716 1.0006 172.7 18.6 .177 105
2023 03 22 21  11 39 28.535   +02 09 23.57  637370 1.0007 172.8 18.6 .186 106
2023 03 22 22  11 39 44.836   +02 06 21.04  638014 1.0007 172.8 18.6 .194 107
2023 03 22 23  11 40 01.109   +02 03 18.82  638647 1.0007 172.9 18.6 .203 108
2023 03 23 00  11 40 17.355   +02 00 16.92  639270 1.0007 172.9 18.6 .212 108
2023 03 23 01  11 40 33.575   +01 57 15.33  639883 1.0007 172.9 18.6 .221 109
2023 03 23 02  11 40 49.769   +01 54 14.03  640485 1.0007 173.0 18.6 .230 110
2023 03 23 03  11 41 05.939   +01 51 13.03  641077 1.0008 173.0 18.6 .239 110
2023 03 23 04  11 41 22.084   +01 48 12.32  641660 1.0008 173.1 18.6 .249 111
2023 03 23 05  11 41 38.205   +01 45 11.88  642231 1.0008 173.1 18.6 .259 111
2023 03 23 06  11 41 54.303   +01 42 11.72  642793 1.0008 173.1 18.6 .269 112
2023 03 23 07  11 42 10.379   +01 39 11.83  643345 1.0008 173.2 18.6 .279 112
2023 03 23 08  11 42 26.433   +01 36 12.20  643886 1.0008 173.2 18.6 .290 113
2023 03 23 09  11 42 42.466   +01 33 12.82  644418 1.0008 173.3 18.6 .300 113
2023 03 23 10  11 42 58.478   +01 30 13.69  644939 1.0009 173.3 18.6 .311 114
2023 03 23 11  11 43 14.471   +01 27 14.80  645450 1.0009 173.3 18.6 .323 114
2023 03 23 12  11 43 30.444   +01 24 16.15  645952 1.0009 173.4 18.6 .334 114
2023 03 23 13  11 43 46.399   +01 21 17.73  646443 1.0009 173.4 18.6 .346 115
2023 03 23 14  11 44 02.336   +01 18 19.53  646924 1.0009 173.5 18.6 .357 115
2023 03 23 15  11 44 18.255   +01 15 21.55  647395 1.0009 173.5 18.6 .369 115
2023 03 23 16  11 44 34.158   +01 12 23.78  647856 1.0010 173.5 18.6 .382 116
2023 03 23 17  11 44 50.044   +01 09 26.22  648307 1.0010 173.6 18.6 .394 116
2023 03 23 18  11 45 05.915   +01 06 28.86  648748 1.0010 173.6 18.6 .407 116
2023 03 23 19  11 45 21.770   +01 03 31.69  649179 1.0010 173.6 18.6 .420 116
2023 03 23 20  11 45 37.611   +01 00 34.70  649600 1.0010 173.7 18.6 .433 117
2023 03 23 21  11 45 53.439   +00 57 37.90  650012 1.0010 173.7 18.6 .446 117
2023 03 23 22  11 46 09.253   +00 54 41.28  650413 1.0010 173.7 18.6 .460 117
2023 03 23 23  11 46 25.054   +00 51 44.83  650805 1.0011 173.8 18.6 .474 117
2023 03 24 00  11 46 40.843   +00 48 48.54  651186 1.0011 173.8 18.6 .488 118
2023 03 24 01  11 46 56.620   +00 45 52.41  651558 1.0011 173.9 18.6 .502 118
2023 03 24 02  11 47 12.387   +00 42 56.43  651919 1.0011 173.9 18.6 .517 118
2023 03 24 03  11 47 28.142   +00 40 00.61  652271 1.0011 173.9 18.6 .532 118
2023 03 24 04  11 47 43.888   +00 37 04.92  652613 1.0011 174.0 18.6 .547 118
2023 03 24 05  11 47 59.625   +00 34 09.37  652946 1.0011 174.0 18.6 .562 119
2023 03 24 06  11 48 15.353   +00 31 13.96  653268 1.0012 174.0 18.6 .578 119
2023 03 24 07  11 48 31.072   +00 28 18.67  653580 1.0012 174.1 18.6 .594 119
2023 03 24 08  11 48 46.784   +00 25 23.50  653883 1.0012 174.1 18.6 .610 119
2023 03 24 09  11 49 02.488   +00 22 28.44  654176 1.0012 174.1 18.6 .626 119
2023 03 24 10  11 49 18.186   +00 19 33.50  654459 1.0012 174.2 18.6 .643 119
2023 03 24 11  11 49 33.878   +00 16 38.66  654732 1.0012 174.2 18.6 .659 119
2023 03 24 12  11 49 49.564   +00 13 43.91  654996 1.0012 174.3 18.6 .676 120
2023 03 24 13  11 50 05.245   +00 10 49.27  655249 1.0013 174.3 18.6 .694 120
2023 03 24 14  11 50 20.921   +00 07 54.71  655493 1.0013 174.3 18.6 .711 120
2023 03 24 15  11 50 36.593   +00 05 00.23  655727 1.0013 174.4 18.6 .729 120